Date,TemperatureHighF,TemperatureAvgF,TemperatureLowF,DewpointHighF,DewpointAvgF,DewpointLowF,HumidityHigh,HumidityAvg,HumidityLow,PressureMaxIn,PressureMinIn,WindSpeedMaxMPH,WindSpeedAvgMPH,GustSpeedMaxMPH,PrecipitationSumIn
2013-1-1,61.0,54.1,44.6,99.9,47.0,33.5,98,77,51,30.28,29.92,17,6,17,0.00
2013-1-2,46.2,42.9,39.6,99.9,29.5,2.9,76,57,51,30.37,30.25,13,5,13,0.00
2013-1-3,49.1,43.4,39.4,99.9,27.4,23.7,53,51,48,30.45,30.31,12,5,12,0.00
2013-1-4,45.0,42.5,39.2,99.9,33.9,25.3,80,64,51,30.48,30.37,15,5,15,0.00
2013-1-5,58.8,44.6,34.0,99.9,36.3,9.7,98,68,18,30.42,30.25,9,2,9,0.00
2013-1-6,65.3,45.3,29.3,99.9,33.4,21.8,98,65,37,30.40,30.25,13,3,13,0.00
2013-1-7,62.8,47.4,31.1,99.9,35.3,5.2,96,64,46,30.34,30.01,12,3,12,0.00
2013-1-8,62.8,54.3,48.7,99.9,54.2,34.2,100,94,96,30.04,29.81,12,4,12,0.22
2013-1-9,67.8,58.6,54.3,99.9,55.4,40.0,97,89,46,30.04,29.86,16,6,16,4.30
2013-1-11,73.8,58.9,42.4,99.9,44.6,32.9,86,60,39,30.04,29.81,13,2,13,0.00
2013-1-12,74.3,68.5,57.9,99.9,51.7,38.9,66,52,43,29.83,29.66,14,4,14,0.00
2013-1-13,60.3,51.8,41.7,99.9,35.5,25.8,97,51,44,30.16,29.83,18,7,18,0.00
2013-1-14,49.5,43.7,41.4,34.2,29.2,27.0,62,57,52,30.16,30.07,10,6,10,0.00
2013-1-15,44.1,40.1,35.8,99.9,28.7,21.6,80,61,52,30.28,30.07,17,6,17,0.00
2013-1-16,58.8,37.1,29.3,99.9,25.5,8.8,76,57,50,30.34,30.22,15,3,15,0.00
2013-1-17,40.5,36.4,31.8,26.0,22.7,19.3,62,57,56,30.48,30.31,6,2,6,0.00
2013-1-18,68.0,48.7,34.5,99.9,32.8,21.4,65,54,44,30.51,30.37,12,3,12,0.00
2013-1-19,72.9,55.0,36.9,99.9,38.4,0.5,84,52,14,30.37,30.13,12,2,12,0.00
2013-1-20,75.2,55.7,37.9,99.9,39.6,29.0,84,54,40,30.28,30.10,8,2,8,0.00
2013-1-21,78.4,60.2,44.8,99.9,43.3,34.4,86,53,40,30.28,30.13,8,2,8,0.00
2013-1-22,64.2,52.7,46.4,99.9,37.4,8.5,56,52,13,30.31,30.16,6,2,6,0.00
2013-1-23,84.6,63.8,47.7,99.9,46.3,34.2,91,55,40,30.37,30.19,9,2,9,0.00
2013-1-24,87.4,68.5,56.1,99.9,57.1,15.4,99,70,31,30.28,30.10,10,3,10,0.00
2013-1-25,86.7,71.1,61.9,87.0,52.8,27.2,101,55,31,30.22,30.01,10,3,10,0.00
2013-1-26,84.9,70.6,61.9,99.9,54.4,16.4,104,56,9,30.19,30.01,12,4,12,0.00
2013-1-27,83.8,70.6,61.3,83.0,60.1,14.8,100,75,11,30.13,29.95,15,5,15,0.00
2013-1-28,73.2,70.6,69.1,72.1,58.5,56.7,100,66,63,30.07,29.89,15,5,15,0.00
2013-1-29,90.5,74.5,58.3,87.3,60.5,33.4,100,63,37,29.89,29.48,20,7,20,0.00
2013-1-30,66.6,53.6,37.9,39.2,23.8,-4.8,66,33,13,30.25,29.83,20,5,20,0.00
2013-1-31,74.5,51.3,32.5,33.1,18.4,-4.2,91,28,21,30.34,30.19,10,3,10,0.00
2013-2-1,78.1,59.3,42.3,75.3,17.7,6.7,98,22,11,30.37,30.16,13,3,13,0.00
2013-2-2,82.8,61.7,45.0,58.6,22.9,2.7,81,25,11,30.28,30.16,10,2,10,0.00
2013-2-3,79.0,65.4,55.2,76.7,36.9,10.7,96,42,11,30.34,30.01,15,5,15,0.00
2013-2-4,85.1,67.5,57.6,99.9,46.4,11.4,86,51,14,30.07,29.77,13,3,13,0.00
2013-2-5,84.9,66.2,53.6,99.9,50.1,14.0,98,57,8,30.01,29.86,6,1,6,0.00
2013-2-6,74.7,65.4,60.6,99.9,57.1,38.7,97,74,41,30.04,29.83,14,5,14,1.47
2013-2-7,78.8,64.4,59.9,99.9,54.9,17.3,94,70,10,30.07,29.89,8,2,8,0.00
2013-2-8,74.7,61.3,50.9,55.7,48.4,42.2,72,63,52,30.25,30.04,16,5,16,0.00
2013-2-9,71.4,63.1,52.3,63.1,56.5,18.9,94,80,69,30.10,29.77,14,5,14,0.00
2013-2-10,71.6,67.8,61.7,68.0,55.7,48.6,94,66,52,30.04,29.77,15,5,15,0.00
2013-2-11,61.7,57.5,51.4,50.4,46.9,42.7,87,68,65,30.07,29.92,18,7,18,0.04
2013-2-12,77.0,61.2,53.2,57.5,52.6,47.9,97,76,52,30.04,29.83,9,4,9,0.04
2013-2-13,64.9,50.9,42.4,51.2,35.9,19.9,101,58,34,30.19,30.01,10,3,10,0.00
2013-2-14,74.1,54.5,34.9,55.9,28.9,17.0,104,38,28,30.16,30.01,10,2,10,0.00
2013-2-15,74.3,56.1,40.8,68.2,29.9,20.5,104,37,28,30.40,30.07,21,5,21,0.00
2013-2-16,69.8,48.4,34.7,46.1,24.0,13.4,89,38,30,30.51,30.25,10,2,10,0.00
2013-2-17,75.9,56.7,32.9,99.9,40.0,18.0,68,46,37,30.28,29.98,15,5,15,0.00
2013-2-18,84.0,68.7,58.6,99.9,47.2,13.1,101,46,12,30.04,29.86,13,4,13,0.00
2013-2-19,71.6,61.2,48.9,99.9,40.9,5.8,99,47,33,30.25,30.01,18,8,18,0.00
2013-2-20,77.4,64.5,51.8,99.9,41.3,29.5,94,40,31,30.10,29.42,19,7,19,0.04
2013-2-21,81.7,70.1,53.6,99.9,33.7,7.0,92,28,11,29.86,29.48,14,4,14,0.00
2013-2-22,72.7,59.1,51.3,49.2,20.0,6.5,80,24,11,30.01,29.83,16,6,16,0.00
2013-2-23,75.9,57.6,45.7,63.7,26.9,11.7,80,33,11,30.07,29.86,12,4,12,0.00
2013-2-24,67.8,53.9,40.3,99.9,36.9,5.5,101,47,29,29.92,29.60,12,3,12,0.00
2013-2-25,70.0,61.2,49.1,99.9,45.7,23.1,97,59,34,29.89,29.57,32,10,32,0.00
2013-2-26,70.3,52.8,35.8,51.6,25.2,12.5,103,35,28,30.01,29.63,9,3,9,0.00
2013-2-27,71.6,54.3,38.1,51.3,26.4,14.1,104,35,12,30.22,29.81,17,4,17,0.00
2013-2-28,68.2,49.9,37.0,50.0,23.4,11.9,103,36,12,30.34,30.13,12,3,12,0.00
2013-3-1,77.4,55.5,30.9,74.3,29.9,0.3,104,40,26,30.31,30.07,12,3,12,0.00
2013-3-2,72.9,54.1,33.6,53.4,25.4,10.7,90,33,26,30.45,30.16,14,3,14,0.00
2013-3-3,83.3,58.4,34.7,80.0,28.9,9.2,93,38,11,30.28,29.95,14,4,14,0.00
2013-3-4,94.5,69.9,46.8,87.8,29.5,4.8,102,28,11,29.95,29.72,13,3,13,0.00
2013-3-5,72.7,59.4,42.4,33.6,10.4,-2.0,30,14,11,30.37,29.77,28,6,28,0.00
2013-3-6,68.7,50.3,30.7,24.8,4.5,-7.9,57,16,12,30.45,30.22,15,3,15,0.00
2013-3-7,74.8,58.5,38.3,58.2,27.2,-1.1,90,35,11,30.22,30.07,13,3,13,0.00
2013-3-8,74.8,67.4,63.0,99.9,55.1,48.1,77,60,50,30.13,29.98,17,6,17,0.00
2013-3-9,86.7,71.7,65.3,99.9,58.3,48.9,94,62,40,30.04,29.60,20,7,20,0.00
2013-3-10,75.9,66.5,52.5,99.9,53.1,42.2,94,57,50,30.16,29.63,17,6,17,0.00
2013-3-11,76.5,56.7,37.2,99.9,37.8,17.9,97,52,21,30.22,29.92,14,3,14,0.00
2013-3-12,86.7,61.8,35.4,84.8,34.9,7.7,98,42,21,30.22,30.01,10,3,10,0.00
2013-3-13,83.1,64.2,44.2,81.6,40.3,15.5,98,47,21,30.45,30.19,10,4,10,0.00
2013-3-14,85.5,64.4,43.3,99.9,39.1,10.7,103,29,11,30.42,30.13,13,4,13,0.00
2013-3-15,87.3,70.9,48.2,69.8,33.7,8.1,96,30,11,30.28,29.95,14,4,14,0.00
2013-3-16,90.9,71.7,54.7,73.5,32.5,9.9,93,28,11,30.01,29.72,15,5,15,0.00
2013-3-17,95.4,76.3,63.5,75.8,41.6,14.1,93,34,11,29.83,29.60,10,3,10,0.00
2013-3-18,101.8,77.2,65.8,83.1,32.7,14.0,96,22,11,29.89,29.72,16,4,16,0.00
2013-3-19,87.1,72.2,55.6,86.1,44.1,11.7,99,46,11,30.01,29.77,14,5,14,0.00
2013-3-20,78.3,68.3,61.3,99.9,46.5,31.2,104,47,28,30.22,29.89,20,7,20,0.00
2013-3-21,79.0,64.9,52.9,99.9,44.6,33.5,92,47,35,30.04,29.66,14,4,14,0.00
2013-3-22,91.6,74.2,62.6,87.1,54.0,16.3,100,52,11,29.75,29.60,9,2,9,0.00
2013-3-23,88.5,71.7,58.1,74.8,31.3,11.3,83,28,11,29.77,29.57,13,4,13,0.00
2013-3-24,67.8,59.2,49.8,99.9,34.4,12.4,57,38,13,30.19,29.69,21,7,21,0.00
2013-3-25,67.5,52.6,34.9,43.1,20.4,7.3,71,29,23,30.37,30.07,15,5,15,0.00
2013-3-26,73.6,55.0,32.2,67.7,21.9,-5.3,90,29,11,30.48,30.16,12,4,12,0.00
2013-3-27,72.3,58.0,41.0,59.6,23.9,11.1,94,28,12,30.37,30.13,13,4,13,0.00
2013-3-28,72.1,65.3,58.5,99.9,32.7,9.4,95,29,14,30.25,30.04,13,4,13,0.00
2013-3-29,85.5,70.9,59.4,99.9,52.0,35.3,96,54,31,30.19,30.01,14,4,14,0.00
2013-3-30,91.8,75.0,64.6,99.9,51.2,14.0,87,46,11,30.13,29.89,13,4,13,0.00
2013-3-31,90.5,73.3,65.3,79.1,32.4,13.3,93,27,11,29.95,29.81,16,4,16,0.00
2013-4-1,93.4,75.1,66.0,75.8,36.5,14.0,96,31,10,30.07,29.86,13,4,13,0.00
2013-4-2,86.2,73.7,63.0,71.9,27.8,14.0,93,22,11,30.01,29.69,13,5,13,0.05
2013-4-3,62.8,57.9,52.5,58.6,27.0,13.1,100,34,19,30.16,29.81,15,5,15,0.28
2013-4-4,76.3,59.2,47.3,47.9,15.2,6.7,44,19,11,30.25,30.07,12,5,12,0.00
2013-4-5,78.6,59.9,40.8,52.1,14.9,3.3,83,19,11,30.31,30.04,10,3,10,0.00
2013-4-6,86.7,69.1,55.6,64.9,27.5,8.1,86,25,11,30.10,29.83,14,5,14,0.00
2013-4-7,90.5,72.6,61.3,76.4,32.9,11.7,87,28,11,29.95,29.75,17,5,17,0.00
2013-4-8,84.6,73.5,68.7,99.9,29.4,18.1,92,22,11,29.83,29.63,15,6,15,0.00
2013-4-9,90.9,77.2,71.8,99.9,55.3,44.5,74,34,31,29.72,29.54,16,6,16,0.00
2013-4-10,90.8,64.0,55.0,99.9,43.0,9.3,74,34,36,29.92,29.54,20,8,20,0.00
2013-4-11,73.2,68.2,49.1,99.9,53.1,12.2,93,63,12,29.98,29.77,12,3,12,0.34
2013-4-12,87.8,70.7,46.0,99.9,54.9,29.7,104,56,31,30.01,29.81,13,4,13,0.00
2013-4-13,63.1,57.3,54.1,62.2,40.5,33.4,70,54,36,29.95,29.86,6,1,6,0.00
2013-5-1,93.0,85.3,74.7,92.8,53.8,20.4,104,42,11,29.89,29.77,10,5,10,0.00
2013-5-2,74.7,63.2,53.1,67.9,14.2,6.7,86,16,11,30.37,29.86,18,7,18,0.00
2013-5-3,73.2,58.0,42.8,41.7,9.4,2.1,54,15,11,30.40,30.07,20,5,20,0.03
2013-5-4,86.2,63.8,42.4,42.8,16.1,1.8,85,16,11,30.10,29.83,12,2,12,0.00
2013-5-5,84.4,66.0,49.6,44.7,18.5,5.2,51,17,11,30.13,29.98,12,3,12,0.00
2013-5-6,82.2,65.6,51.8,56.2,20.4,6.7,44,20,10,30.16,29.95,12,3,12,0.00
2013-5-7,90.3,70.4,52.3,99.9,53.2,9.9,95,55,13,30.10,29.89,11,2,11,0.00
2013-5-8,90.9,74.0,64.0,99.9,54.0,41.7,86,52,37,30.01,29.83,15,5,15,0.00
2013-5-9,84.6,77.1,71.1,99.9,61.8,27.3,84,58,40,29.95,29.77,11,4,11,0.00
2013-5-10,79.3,71.1,65.5,99.9,57.5,26.9,96,68,22,30.01,29.81,15,4,15,0.05
2013-5-11,86.7,73.9,63.7,99.9,59.3,48.8,96,62,45,30.16,29.95,19,5,19,0.05
2013-5-12,83.8,70.8,60.3,99.9,52.2,44.5,56,48,45,30.25,30.01,14,3,14,0.00
2013-5-13,84.6,65.8,54.3,99.9,48.3,18.7,76,53,30,30.31,30.19,8,2,8,0.00
2013-5-14,76.3,75.3,74.5,99.9,60.5,56.9,58,52,53,30.07,30.04,10,7,10,0.00
2013-5-15,91.8,79.6,71.4,99.9,65.9,23.0,97,58,11,30.07,29.83,20,6,20,0.00
2013-5-16,102.4,83.1,69.4,99.9,67.3,25.2,93,59,40,29.86,29.66,13,5,13,0.00
2013-5-17,101.5,84.1,74.5,99.9,65.2,22.8,71,47,11,29.89,29.72,14,5,14,0.00
2013-5-18,97.0,83.2,73.0,75.2,49.8,22.2,94,35,11,29.95,29.77,18,6,18,0.00
2013-5-19,99.5,83.8,74.3,77.1,47.0,21.5,87,33,11,29.86,29.60,13,6,13,0.00
2013-5-20,97.7,83.0,72.5,76.0,45.0,21.6,100,31,11,29.86,29.66,15,6,15,0.00
2013-5-21,95.9,84.4,74.3,79.8,47.8,22.3,96,33,9,29.81,29.66,15,5,15,0.00
2013-5-22,97.9,81.9,69.3,99.9,46.6,14.0,88,33,11,29.92,29.77,12,5,12,0.00
2013-5-23,97.9,82.7,75.9,99.9,65.3,25.8,79,53,10,29.98,29.83,15,5,15,0.00
2013-5-24,78.6,73.2,68.0,99.9,66.8,54.7,100,80,44,30.10,29.98,13,3,13,0.92
2013-5-25,86.0,74.6,67.6,99.9,67.1,27.5,100,80,40,30.16,30.01,14,6,14,0.80
2013-5-26,87.3,77.7,73.2,99.9,64.5,53.7,93,63,40,30.10,29.95,12,4,12,0.13
2013-5-27,92.1,80.3,72.9,99.9,68.1,24.8,81,49,34,30.04,29.83,15,5,15,0.00
2013-5-28,92.5,85.1,77.5,99.9,63.1,57.7,60,47,45,29.89,29.75,20,8,20,0.00
2013-5-29,88.9,79.4,75.4,99.9,63.1,24.0,79,56,10,29.86,29.66,22,7,22,0.00
2013-5-30,93.6,82.8,76.8,99.9,63.2,58.4,60,51,45,29.86,29.72,13,5,13,0.00
2013-5-31,98.4,84.2,74.5,99.9,68.7,60.1,91,59,45,29.89,29.75,13,6,13,0.00
2013-6-1,101.3,85.3,76.8,99.9,69.7,28.2,82,59,44,29.89,29.75,13,5,13,0.00
2013-6-2,88.7,78.1,67.1,99.9,65.7,26.3,100,67,20,30.07,29.83,15,3,15,0.12
2013-6-3,97.2,80.8,68.2,99.9,67.6,41.8,97,63,44,29.98,29.77,10,3,10,0.00
2013-6-4,97.5,82.0,70.0,99.9,67.5,57.3,97,63,44,29.92,29.77,12,4,12,0.00
2013-6-5,97.5,84.5,70.0,99.9,68.0,29.1,97,56,44,29.89,29.72,12,4,12,0.00
2013-6-6,97.2,82.0,70.9,99.9,68.5,42.6,100,65,44,29.89,29.75,13,2,13,0.00
2013-6-7,81.5,73.7,67.1,99.9,62.7,19.2,100,67,48,30.04,29.83,13,4,13,0.20
2013-6-8,93.0,76.7,64.8,99.9,65.4,24.4,100,71,37,29.95,29.77,13,3,13,0.00
2013-6-9,93.9,81.2,70.7,99.9,69.7,58.0,97,68,44,29.95,29.81,13,4,13,0.00
2013-6-10,99.0,83.2,71.4,99.9,70.3,28.0,97,67,40,30.01,29.81,12,4,12,0.00
2013-6-11,95.0,77.8,73.0,99.9,79.9,39.6,96,50,32,30.07,29.95,13,2,13,0.21
2013-6-12,96.1,79.3,73.4,99.9,77.5,39.0,100,67,44,30.04,29.95,12,3,12,0.76
2013-6-13,90.1,77.2,72.7,99.9,74.5,40.0,100,91,62,30.07,29.92,9,2,9,0.12
2013-6-14,88.7,77.7,71.8,99.9,72.8,40.3,100,84,57,30.01,29.86,19,3,19,0.46
2013-6-15,97.0,84.0,72.7,99.9,67.8,31.7,100,58,40,30.01,29.86,9,3,9,0.00
2013-6-16,97.9,84.1,74.8,99.9,70.6,59.2,97,66,40,30.04,29.89,13,4,13,0.00
2013-6-17,99.3,85.5,76.1,99.9,71.8,58.6,96,65,45,30.01,29.83,12,4,12,0.00
2013-6-18,96.6,83.4,74.7,99.9,72.6,30.8,96,65,45,30.01,29.86,10,3,10,0.00
2013-6-19,100.2,85.4,75.0,99.9,67.0,22.3,96,59,11,29.98,29.81,15,4,15,0.00
2013-6-20,98.1,85.0,75.2,99.9,53.7,27.1,90,35,15,30.04,29.92,13,5,13,0.00
2013-6-21,97.3,85.0,76.8,99.9,62.1,20.9,82,51,11,30.10,29.92,14,5,14,0.00
2013-6-22,97.9,82.7,73.6,79.3,45.5,21.3,96,30,11,30.04,29.89,14,5,14,0.00
2013-6-23,97.7,84.8,75.4,89.3,52.3,27.2,93,34,17,29.98,29.83,14,6,14,0.00
2013-6-24,98.1,84.1,74.8,99.9,45.7,16.6,93,29,10,30.04,29.86,15,6,15,0.00
2013-6-25,99.9,84.8,75.4,87.0,49.3,19.9,87,31,11,30.01,29.83,14,6,14,0.00
2013-6-26,102.7,85.9,75.4,75.7,49.5,21.3,84,31,11,29.98,29.83,13,5,13,0.00
2013-6-27,101.3,82.6,73.4,73.9,41.3,20.5,71,25,10,30.04,29.89,13,4,13,0.00
2013-6-28,103.6,93.8,81.1,65.7,53.4,-8.7,42,27,17,29.98,29.77,9,2,9,0.00
2013-6-29,109.8,89.7,71.2,71.3,46.5,16.5,77,26,10,29.89,29.69,10,2,10,0.00
2013-6-30,87.6,77.6,68.9,70.3,44.1,12.1,90,39,10,30.01,29.75,8,2,8,0.16
2013-7-1,93.0,81.5,71.4,52.0,42.1,30.6,26,25,21,30.01,29.83,14,3,14,0.00
2013-7-2,93.0,81.2,64.0,40.0,31.3,12.3,25,17,13,30.07,29.92,10,3,10,0.00
2013-7-3,97.0,75.9,65.5,31.4,20.2,9.0,16,13,10,30.04,29.86,7,2,7,0.00
2013-7-4,97.3,88.9,74.1,29.4,20.1,1.9,13,8,4,29.98,29.83,9,4,9,0.00
2013-7-5,98.4,89.7,76.1,36.9,29.7,10.4,12,12,8,29.95,29.81,11,5,11,0.00
2013-7-6,100.4,82.9,69.4,38.6,29.2,17.6,25,15,11,29.92,29.77,12,4,12,0.00
2013-7-7,98.8,83.3,73.6,37.3,28.0,16.5,23,14,10,29.98,29.83,15,4,15,0.00
2013-7-8,97.2,82.7,75.4,31.5,23.7,17.4,15,12,10,30.10,29.92,14,4,14,0.00
2013-7-9,93.9,79.1,73.6,35.9,29.1,17.0,24,17,10,30.16,30.07,10,3,10,0.00
2013-7-10,102.0,85.6,74.7,39.7,29.9,9.7,22,14,7,30.10,29.89,13,4,13,0.00
2013-7-11,101.1,86.0,73.6,39.0,29.2,16.3,21,13,10,30.01,29.81,10,3,10,0.00
2013-7-12,103.1,85.9,72.3,40.7,30.7,16.3,25,14,10,29.98,29.83,12,3,12,0.00
2013-7-13,103.3,86.3,70.2,40.7,29.0,15.9,19,13,11,29.98,29.83,13,3,13,0.00
2013-7-14,103.1,85.3,73.0,35.7,24.3,16.3,15,11,10,29.92,29.77,14,4,14,0.00
2013-7-15,92.8,79.0,71.8,60.5,28.8,15.2,66,20,10,29.98,29.83,13,4,13,0.17
2013-7-16,88.0,77.0,70.5,69.7,39.5,17.0,88,32,9,30.10,29.92,15,4,15,0.30
2013-7-17,86.0,75.5,72.0,59.1,44.1,24.8,62,35,12,30.16,30.07,13,4,13,0.08
2013-7-18,72.7,72.1,72.0,49.2,48.1,45.6,44,43,38,30.16,30.13,5,2,5,0.00
2013-7-22,99.0,88.7,76.8,97.1,66.4,26.2,96,59,10,29.98,29.86,14,6,14,0.00
2013-7-23,100.4,85.9,75.4,97.5,63.1,24.6,92,54,10,30.04,29.86,14,5,14,0.00
2013-7-24,100.4,85.6,74.1,97.5,65.5,25.5,92,59,10,29.98,29.83,12,4,12,0.00
2013-7-25,101.5,85.5,72.9,98.2,63.3,24.8,91,55,10,30.04,29.92,15,4,15,0.00
2013-7-26,100.8,87.6,75.0,98.5,58.7,24.6,94,48,10,30.04,29.86,10,4,10,0.00
2013-7-27,98.1,84.6,74.8,96.2,57.1,22.9,95,49,10,30.01,29.86,12,4,12,0.00
2013-7-28,101.1,85.0,72.9,54.0,32.5,17.5,40,17,10,29.95,29.83,14,4,14,0.00
2013-7-29,99.3,83.9,76.5,59.4,55.4,52.1,48,39,27,30.01,29.92,13,5,13,0.00
2013-7-31,103.5,95.1,81.5,62.2,55.2,46.2,34,26,25,30.07,29.89,10,4,10,0.00
2013-8-1,103.5,87.4,73.8,61.9,55.2,46.2,57,35,25,30.07,29.89,14,4,14,0.00
2013-8-2,102.2,86.2,72.0,63.2,54.5,45.6,59,36,25,30.01,29.86,14,4,14,0.00
2013-8-3,102.4,87.0,75.7,61.0,54.9,46.2,50,35,25,30.01,29.86,14,5,14,0.00
2013-8-4,101.8,87.0,75.6,62.4,55.6,46.2,55,36,25,30.04,29.92,13,4,13,0.00
2013-8-5,104.7,92.7,77.2,64.4,56.1,46.2,50,30,25,30.04,29.81,15,6,15,0.00
2013-8-6,106.0,88.1,74.8,64.6,55.4,45.3,53,35,24,29.95,29.77,15,5,15,0.00
2013-8-7,106.0,88.0,75.6,65.8,56.0,45.2,51,35,24,29.95,29.75,15,4,15,0.00
2013-8-8,105.1,89.6,76.8,65.3,54.4,43.1,49,32,21,29.89,29.77,15,5,15,0.00
2013-8-9,105.1,87.5,72.9,62.9,54.4,45.6,52,34,25,29.98,29.81,12,4,12,0.00
2013-8-10,102.2,84.1,73.0,79.5,54.6,28.7,90,38,23,30.07,29.95,13,3,13,0.00
2013-8-11,102.9,84.0,76.5,99.6,71.2,46.4,93,68,27,30.10,29.92,13,2,13,0.00
2013-8-12,100.8,96.5,78.6,74.2,70.3,53.6,43,43,43,30.07,29.92,10,4,10,0.00
2013-8-13,104.4,88.0,73.9,43.9,31.9,21.3,34,15,10,30.04,29.86,14,3,14,0.00
2013-8-14,108.3,89.5,75.0,85.6,53.8,19.6,50,34,10,30.01,29.83,10,3,10,0.00
2013-8-15,105.3,88.6,75.6,82.8,61.5,24.1,50,43,10,30.01,29.83,10,3,10,0.00
2013-8-16,99.9,85.5,75.6,71.9,46.7,23.4,88,28,11,30.01,29.89,15,3,15,0.00
2013-8-17,100.8,85.9,72.3,68.5,46.3,22.4,50,27,11,30.04,29.89,14,3,14,0.00
2013-8-18,100.8,84.5,68.7,63.6,43.8,22.3,71,25,11,30.04,29.89,12,3,12,0.00
2013-8-19,101.3,84.0,67.8,65.3,42.2,19.4,76,25,11,30.04,29.89,12,3,12,0.00
2013-8-20,95.5,80.6,70.2,69.2,41.8,21.6,91,28,11,30.01,29.92,18,4,18,0.00
2013-8-21,99.9,82.4,74.5,79.7,48.9,30.3,80,32,11,30.07,29.98,14,3,14,0.00
2013-8-22,101.3,92.6,82.4,69.2,56.6,29.1,46,31,13,30.01,29.89,13,5,13,0.00
2013-8-23,102.4,85.9,73.6,74.4,49.6,25.1,90,31,11,30.04,29.86,13,3,13,0.00
2013-8-24,103.3,86.6,73.0,69.6,49.2,22.6,86,29,11,30.04,29.89,15,4,15,0.00
2013-8-25,101.1,84.5,72.0,69.6,46.0,24.9,81,28,11,30.10,29.95,13,4,13,0.00
2013-8-26,87.4,78.0,73.8,77.0,45.5,34.9,81,33,20,30.10,29.98,13,4,13,0.00
2013-8-27,92.8,78.1,73.0,71.9,44.1,29.4,88,32,11,30.10,30.01,14,4,14,0.00
2013-8-28,99.9,90.9,79.3,71.0,57.0,25.1,70,34,11,30.10,29.98,10,4,10,0.00
2013-8-29,101.7,84.7,70.5,74.5,50.2,21.5,95,33,11,30.13,29.95,8,2,8,0.00
2013-8-30,103.5,85.9,72.9,68.0,47.8,21.9,82,28,11,30.04,29.86,10,3,10,0.00
2013-8-31,102.9,85.0,71.8,69.3,45.9,21.3,82,27,11,29.98,29.81,10,3,10,0.00
2013-9-1,103.1,85.8,72.5,70.7,48.5,23.8,64,29,11,29.92,29.77,14,3,14,0.00
2013-9-2,102.4,85.0,74.1,74.1,47.6,23.0,93,29,11,29.98,29.81,12,4,12,0.00
2013-9-3,102.6,84.6,69.4,67.2,44.7,23.4,67,26,11,30.01,29.83,10,2,10,0.00
2013-9-4,103.1,83.5,73.9,69.8,45.1,25.4,82,27,11,30.04,29.86,14,2,14,0.00
2013-9-5,99.3,82.7,71.2,77.1,48.2,24.4,75,33,11,30.13,29.95,10,3,10,0.00
2013-9-6,92.1,76.9,70.9,71.6,43.2,29.9,94,32,11,30.10,30.01,9,1,9,0.00
2013-9-8,90.7,74.8,70.9,86.6,51.7,44.2,91,48,31,30.07,29.89,9,2,9,0.04
2013-9-9,90.9,77.8,70.7,72.7,48.7,30.4,94,43,12,29.98,29.89,15,4,15,0.00
2013-9-10,92.5,77.0,72.0,74.1,51.4,30.3,94,45,11,30.04,29.95,22,4,22,0.04
2013-9-12,97.5,93.4,80.8,76.4,58.6,29.6,74,32,15,30.04,29.89,13,6,13,0.00
2013-9-14,85.6,85.6,85.5,38.6,38.5,38.2,19,19,19,29.92,29.92,6,6,6,0.00
2013-9-23,89.2,69.6,64.8,73.5,19.8,10.9,60,18,12,29.92,29.81,6,1,6,0.00
2013-9-24,64.6,63.8,62.8,12.6,11.9,11.1,13,13,13,29.81,29.81,0,0,0,0.00
2013-10-3,75.7,75.7,75.6,42.9,42.9,42.8,31,31,31,29.89,29.89,3,2,3,0.08
2013-10-4,75.6,73.0,70.5,69.4,45.7,42.6,90,38,31,29.89,29.86,6,1,6,0.00
2013-10-5,88.2,88.2,88.2,66.0,66.0,66.0,48,48,48,29.86,29.86,5,0,0,0.00
2013-10-6,88.2,73.4,55.8,66.0,36.9,7.2,48,29,14,30.13,29.86,4,0,4,0.00
2013-10-7,59.5,55.6,53.8,46.4,8.3,7.1,76,16,14,30.16,30.10,2,0,2,0.00
2013-10-8,59.0,57.6,56.8,9.8,8.7,7.9,14,14,14,30.10,30.07,0,0,0,0.00
2013-10-9,75.6,73.0,56.7,64.5,47.4,7.9,69,47,11,30.07,29.92,7,3,7,0.00
2013-10-10,90.0,71.8,62.8,67.9,32.8,13.8,90,28,11,30.04,29.89,10,2,10,0.00
2013-10-16,88.3,72.4,61.0,61.0,37.4,30.0,40,29,23,30.01,29.89,6,5,6,0.08
2013-10-17,74.1,70.1,61.0,71.0,27.9,14.2,91,31,11,30.01,29.95,5,2,5,0.36
2013-10-18,78.4,75.0,67.6,54.2,29.2,13.1,62,19,12,29.98,29.89,7,4,7,0.04
2013-11-6,78.8,71.4,67.6,37.5,31.1,25.9,33,23,19,30.13,29.86,13,6,13,0.04
2013-11-12,70.2,67.4,67.1,25.9,18.3,17.8,19,15,15,30.45,30.13,10,10,10,0.04
2013-11-22,67.5,39.7,38.3,38.1,16.7,13.8,89,40,15,30.45,30.25,10,4,10,0.04
2013-11-23,44.2,40.3,37.6,36.8,19.4,13.9,95,44,30,30.48,30.34,10,3,10,0.05
2013-11-24,42.1,40.1,35.8,40.1,20.7,9.7,95,49,29,30.48,30.34,9,3,9,0.33
2013-11-25,36.0,35.7,35.6,34.5,32.4,31.1,95,87,83,30.34,30.25,3,0,2,0.05
2013-11-27,54.1,40.2,30.9,32.3,3.4,-6.1,92,22,15,30.51,30.25,8,3,8,0.09
2013-12-5,54.1,47.2,38.3,37.0,21.3,7.4,66,38,15,30.40,29.95,13,6,13,0.09
2013-12-6,45.0,36.1,32.7,40.1,30.9,23.3,98,81,62,30.40,30.04,9,4,9,0.04
2013-12-7,36.3,32.4,30.2,99.9,23.5,17.3,89,63,51,30.45,30.25,13,4,13,0.00
2013-12-8,47.5,36.3,30.4,99.9,34.3,10.8,94,82,41,30.28,30.01,6,2,6,0.00
2013-12-9,46.0,42.6,38.5,99.9,39.6,35.2,98,85,85,30.37,30.04,10,2,10,0.00
2013-12-10,52.5,38.4,30.4,99.9,30.8,2.4,94,71,40,30.51,30.34,10,4,10,0.00
2013-12-11,55.4,44.4,34.7,43.0,29.1,22.2,74,56,40,30.42,30.31,6,2,7,0.00